Weather History for Cold Lake, AB

Change the Weather History Date:

Monday, July 1, 2013

  Actual Average Record
Temperature  
Mean Temperature 70 °F -  
Max Temperature 85 °F 73 °F 85 °F (2013)
Min Temperature 55 °F 52 °F 42 °F (2010)
Cooling Degree Days 5    
Growing Degree Days 20 (Base 50)    
Moisture  
Dew Point 60 °F    
Average Humidity 69    
Maximum Humidity 100    
Minimum Humidity 33    
Precipitation  
Precipitation 0.00 in 0.11 in - ()
Sea Level Pressure  
Sea Level Pressure 30.15 in    
Wind  
Wind Speed 2 mph ()    
Max Wind Speed 9 mph    
Max Gust Speed -    
Visibility 11.4 miles    
Events Fog    
Averages and records for this station are not official NWS values.
T = Trace of Precipitation, MM = Missing Value Source: Averaged Metar Reports

Daily Weather History Graph

Daily Weather History Graph

Search for Another Location

Airport:

Trip Planner

Search our weather history database for the weather conditions in past years. The results will help you decide how hot, cold, wet, or windy it might be!

Date:

Astronomy

Jul. 01, 2013 Rise Set
Actual Time 4:51 AM MDT 9:58 PM MDT
Civil Twilight 3:56 AM MDT 10:53 PM MDT
Nautical Twilight 2:06 AM MDT 12:41 AM MDT
Astronomical Twilight Sun does not rise Sun does not rise
Moon 1:02 AM MDT 3:43 PM MDT
Length of Visible Light 18h 57m
Length of Day
17h 07m
Waning Crescent, 35% of the Moon is Illuminated
Jul 1
Waning Crescent
Jul 8
New
Jul 15
First Quarter
Jul 22
Full
Jul 29
Last Quarter

Hourly Weather History & Observations

Time (MDT) Temp. Heat Index Dew Point Humidity Pressure Visibility Wind Dir Wind Speed Gust Speed Precip Events Conditions
12:00 AM 64 °F - 60 °F 83% 30.15 in 15 mi Calm Calm - -   Clear
12:00 AM 64.4 °F - 60.8 °F 88% 30.15 in 15.0 mi Calm Calm - N/A   Partly Cloudy
1:00 AM 62.6 °F - 59.0 °F 88% 30.16 in 15.0 mi Calm Calm - N/A   Partly Cloudy
2:00 AM 60.8 °F - 59.0 °F 94% 30.17 in 15.0 mi SSE 2.3 mph - N/A Fog Shallow Fog
3:00 AM 57.2 °F - 55.4 °F 94% 30.17 in 12.0 mi SSW 2.3 mph - N/A Fog Shallow Fog
3:44 AM - - - N/A% - 2.0 mi Calm Calm - N/A Fog Partly Cloudy
4:00 AM 57.2 °F - 57.2 °F 100% 30.17 in 5.0 mi Calm Calm - N/A Fog Partly Cloudy
4:34 AM - - - N/A% - 0.2 mi Calm Calm - N/A Fog Fog
4:49 AM - - - N/A% - 5.0 mi Calm Calm - N/A   Partly Cloudy
5:00 AM 55.4 °F - 55.4 °F 100% 30.18 in 5.0 mi Calm Calm - N/A   Partly Cloudy
5:31 AM - - - N/A% - 0.5 mi South 2.3 mph - N/A Fog Fog
6:00 AM 55 °F - 55 °F 98% 30.19 in 0 mi South 2.3 mph - - Fog Partial Fog
6:00 AM 55.4 °F - 55.4 °F 100% 30.19 in 0.5 mi South 2.3 mph - N/A Fog Fog
6:21 AM - - - N/A% - 5.0 mi SSW 2.3 mph - N/A   Partly Cloudy
7:00 AM 59.0 °F - 57.2 °F 94% 30.19 in 10.0 mi South 2.3 mph - N/A   Partly Cloudy
8:00 AM 64.4 °F - 60.8 °F 88% 30.19 in 15.0 mi SSW 2.3 mph - N/A   Partly Cloudy
9:00 AM 69.8 °F - 64.4 °F 83% 30.19 in 15.0 mi WSW 4.6 mph - N/A   Partly Cloudy
10:00 AM 75.2 °F - 64.4 °F 69% 30.18 in 15.0 mi SW 2.3 mph - N/A   Scattered Clouds
11:00 AM 78.8 °F - 66.2 °F 65% 30.17 in 15.0 mi South 4.6 mph - N/A   Scattered Clouds
12:00 PM 80 °F - 63 °F 47% 30.17 in 15 mi SW 4.6 mph - -   Partly Cloudy
12:00 PM 80.6 °F 81.8 °F 62.6 °F 54% 30.17 in 15.0 mi SW 5.8 mph - N/A   Mostly Cloudy
1:00 PM 82.4 °F 83.4 °F 62.6 °F 51% 30.17 in 15.0 mi SW 6.9 mph - N/A   Mostly Cloudy
2:00 PM 82.4 °F 82.9 °F 60.8 °F 48% 30.16 in 15.0 mi SW 6.9 mph - N/A   Mostly Cloudy
3:00 PM 84.2 °F 83.5 °F 57.2 °F 40% 30.16 in 15.0 mi SSW 9.2 mph - N/A   Scattered Clouds
4:00 PM 84.2 °F 83.8 °F 59.0 °F 42% 30.14 in 15.0 mi South 4.6 mph - N/A   Scattered Clouds
5:00 PM 84.2 °F 83.8 °F 59.0 °F 42% 30.13 in 15.0 mi SW 4.6 mph - N/A   Mostly Cloudy
6:00 PM 85 °F - 60 °F 33% 30.12 in 15 mi SSW 5.8 mph - -   Scattered Clouds
6:00 PM 84.2 °F 84.4 °F 60.8 °F 45% 30.12 in 15.0 mi SW 5.8 mph - N/A   Mostly Cloudy
7:00 PM 84.2 °F 84.4 °F 60.8 °F 45% 30.11 in 15.0 mi SSW 5.8 mph - N/A   Partly Cloudy
8:00 PM 82.4 °F 82.9 °F 60.8 °F 48% 30.09 in 15.0 mi South 5.8 mph - N/A   Scattered Clouds
9:00 PM 80.6 °F 81.8 °F 62.6 °F 54% 30.08 in 15.0 mi South 4.6 mph - N/A   Partly Cloudy
10:00 PM 77.0 °F - 62.6 °F 61% 30.08 in 15.0 mi South 2.3 mph - N/A   Partly Cloudy
11:00 PM 71.6 °F - 60.8 °F 69% 30.08 in 15.0 mi SSE 4.6 mph - N/A   Clear